Tracking 35275 objects as of 9-Sep-2026
HD Live streaming from Space Station
objects crossing your sky now

SPOC


SPOC is no longer on orbit
SPOC is classified as:


NORAD ID: 46921
Int'l Code: 1998-067RR
Launch date: November 20, 1998
Source: United States (US)
Launch site: TYURATAM MISSILE AND SPACE COMPLEX (TTMTR)
Decay date: 2022-06-25

Uplink (MHz):
Downlink (MHz): 437.350/2401.300
Beacon (MHz):
Mode: 9k6 GMSK/2M QPSK
Call sign: MOCI
Status: Reentered

Your satellite tracking list
Your tracking list is empty




NASA's NSSDC Master Catalog

Two Line Element Set (TLE):
1 46921U 98067RR  22175.44526769  .05489333  12350-4  66926-3 0  9994
2 46921  51.6130 248.2954 0008877 320.6564  39.3814 16.35363181 93131
Source of the keplerian elements: AFSPC